Volver al catálogo

TIANQI-6

ActivoComunicacionesVLEO
NORAD 46810·PAYLOAD·🇨🇳 China

Lanzado Oct 26, 2020 desde Xichang Satellite Launch Center

Loading…

Próximos Pases (próximas 24 horas)

TLE

ActualizadoSource: Space-Track

Época: Sep 14, 2026, 14:45 UTC

1 46810U 20076D   26257.61472779  .00003102  00000-0  20081-3 0  9999
2 46810  34.9982 219.3975 0011174 240.2192 119.7407 15.07675806322085

Sigue TIANQI-6 en tiempo real con AllMySat

Download on the App Store